EA7EQC-13 Weather Reports


time (UTC)temp
F
wind
direction
speed
knots
gust
knots
rain 1hr
in
rain 24hr
in
rain mn
in
humidity
%
barometer
mb
20260504012703 55 137 4.3 7.0 0.00 0.00 0.00 87 1015.4
20260504011803 55 134 3.5 6.1 0.00 0.00 0.00 87 1015.5
20260504010903 55 136 4.3 7.0 0.00 0.00 0.00 87 1015.5
20260504010003 55 142 6.1 8.7 0.00 0.00 0.00 86 1015.3
20260504005403 55 141 6.1 8.7 0.00 0.00 0.00 86 1015.6
20260504004503 56 139 6.1 8.7 0.00 0.00 0.00 86 1015.7
20260504003603 56 152 5.2 8.7 0.00 0.00 0.00 85 1015.7
20260504002703 56 149 5.2 7.8 0.00 0.00 0.00 84 1015.8
20260504001803 57 139 5.2 7.8 0.00 0.00 0.00 81 1016.0
20260504000903 57 135 5.2 7.8 0.00 0.00 0.00 81 1016.1
20260504000007 57 143 5.2 8.7 0.00 0.00 0.00 81 1016.1
20260503235617 56 147 5.2 8.7 0.00 0.00 0.00 81 1016.1
20260503234503 57 149 5.2 7.8 0.00 0.00 0.00 82 1016.3
20260503233603 57 157 5.2 7.8 0.00 0.00 0.00 81 1016.4
20260503232703 57 145 5.2 8.7 0.00 0.00 0.00 80 1016.2
20260503231803 57 151 6.1 9.6 0.00 0.00 0.00 78 1016.2
20260503230903 58 163 3.5 7.8 0.00 0.00 0.00 77 1016.2
20260503230003 58 176 3.5 7.8 0.00 0.00 0.00 75 1016.0
20260503225403 58 174 3.5 8.7 0.00 0.00 0.00 75 1016.0
20260503224718 58 169 3.5 8.7 0.00 0.00 0.00 75 1016.2
20260503223603 58 161 4.3 7.0 0.00 0.00 0.00 76 1016.1
20260503222703 59 152 4.3 7.0 0.00 0.00 0.00 75 1016.3
20260503221803 59 149 3.5 6.1 0.00 0.00 0.00 75 1016.1
20260503220903 60 182 2.6 7.0 0.00 0.00 0.00 73 1016.1
20260503220003 60 170 2.6 7.0 0.00 0.00 0.00 73 1016.1
20260503215403 60 174 2.6 9.6 0.00 0.00 0.00 72 1016.0
20260503214503 61 191 4.3 9.6 0.00 0.00 0.00 71 1016.0
20260503213603 61 202 5.2 11.3 0.00 0.00 0.00 70 1015.7
20260503212703 61 187 5.2 11.3 0.00 0.00 0.00 69 1015.9
20260503211803 62 184 4.3 12.2 0.00 0.00 0.00 68 1016.0
20260503210903 62 198 6.1 12.2 0.00 0.00 0.00 67 1015.5
20260503210004 62 202 7.8 13.9 0.00 0.00 0.00 67 1015.6
20260503205403 63 197 6.1 13.0 0.00 0.00 0.00 67 1015.4
20260503204503 63 197 6.1 13.9 0.00 0.00 0.00 66 1015.3
20260503203603 63 190 6.1 12.2 0.00 0.00 0.00 65 1015.4
20260503202703 63 191 6.1 13.0 0.00 0.00 0.00 64 1015.1
20260503201803 64 187 5.2 9.6 0.00 0.00 0.00 63 1014.9
20260503200903 64 189 4.3 12.2 0.00 0.00 0.00 62 1014.8
20260503200003 64 191 4.3 14.8 0.00 0.00 0.00 61 1014.9
20260503195403 64 195 5.2 9.6 0.00 0.00 0.00 60 1014.6
20260503194503 65 193 5.2 11.3 0.00 0.00 0.00 60 1014.5
20260503193603 65 200 5.2 11.3 0.00 0.00 0.00 59 1014.2
20260503192703 66 201 5.2 9.6 0.00 0.00 0.00 58 1014.1
20260503191803 66 197 5.2 12.2 0.00 0.00 0.00 57 1014.1
20260503190903 67 200 7.0 12.2 0.00 0.00 0.00 55 1014.0
20260503190003 67 195 5.2 12.2 0.00 0.00 0.00 55 1013.7
20260503185403 68 198 5.2 12.2 0.00 0.00 0.00 54 1013.7
20260503184503 68 206 5.2 12.2 0.00 0.00 0.00 52 1013.6
20260503183603 69 205 6.1 12.2 0.00 0.00 0.00 51 1013.6
20260503182703 70 190 5.2 12.2 0.00 0.00 0.00 49 1013.5
20260503181803 70 202 7.0 13.9 0.00 0.00 0.00 50 1013.5
20260503180903 69 206 7.8 14.8 0.00 0.00 0.00 49 1013.5
20260503180004 70 204 7.0 14.8 0.00 0.00 0.00 48 1013.5
20260503175403 70 209 7.0 13.0 0.00 0.00 0.00 48 1013.5
20260503174503 71 203 6.1 11.3 0.00 0.00 0.00 48 1013.5
20260503173817 71 199 7.0 13.9 0.00 0.00 0.00 48 1013.3
20260503172703 71 206 7.8 14.8 0.00 0.00 0.00 48 1013.3
20260503171803 71 192 7.0 15.6 0.00 0.00 0.00 48 1013.3
20260503170903 71 205 7.0 13.0 0.00 0.00 0.00 50 1013.3
20260503150903 71 200 7.8 13.9 0.00 0.00 0.00 51 1013.5
20260503130903 71 172 7.0 13.0 0.00 0.00 0.00 55 1014.5
20260503080903 61 153 4.3 7.8 0.00 0.00 0.00 84 1016.3
20260503072703 61 173 3.5 7.0 0.00 0.00 0.00 85 1016.2
20260503071803 60 152 4.3 7.8 0.00 0.00 0.00 86 1016.3
20260503070903 60 149 4.3 7.0 0.00 0.00 0.00 86 1016.2
20260503054503 59 108 1.7 2.6 0.00 0.00 0.00 86 1016.0
20260503053603 58 108 2.6 3.5 0.00 0.00 0.00 87 1015.8
20260503052703 58 108 3.5 5.2 0.00 0.00 0.00 86 1015.8
20260503051803 59 108 3.5 6.1 0.00 0.00 0.00 86 1015.9
20260503050903 59 108 3.5 6.1 0.00 0.00 0.00 85 1015.9
20260503050003 59 108 2.6 5.2 0.00 0.00 0.00 85 1016.0
20260503045403 59 108 1.7 3.5 0.00 0.00 0.00 84 1016.0
20260503044503 59 108 1.7 6.1 0.00 0.00 0.00 84 1015.8
20260503043818 59 109 1.7 3.5 0.00 0.00 0.00 84 1015.9
20260503042703 59 112 1.7 3.5 0.00 0.00 0.00 83 1015.9
20260503041803 59 117 1.7 3.5 0.00 0.00 0.00 83 1015.9
20260503040903 60 116 1.7 3.5 0.00 0.00 0.00 82 1016.0
20260503040003 59 122 1.7 5.2 0.00 0.00 0.00 82 1015.8
20260503035403 59 125 1.7 5.2 0.00 0.00 0.00 83 1015.9
20260503034503 59 122 1.7 5.2 0.00 0.00 0.00 83 1016.0
20260503033603 59 127 1.7 3.5 0.00 0.00 0.00 84 1016.1
20260503032703 59 128 2.6 6.1 0.00 0.00 0.00 84 1016.0
20260503031803 59 128 3.5 6.1 0.00 0.00 0.00 84 1016.2
20260503030903 59 138 3.5 6.1 0.00 0.00 0.00 83 1016.4
20260503030003 59 136 3.5 7.0 0.00 0.00 0.00 85 1016.1
20260503025403 59 139 3.5 7.0 0.00 0.00 0.00 84 1016.1
20260503024503 60 143 1.7 5.2 0.00 0.00 0.00 84 1016.2
20260503023603 60 142 1.7 6.1 0.00 0.00 0.00 84 1016.4
20260503022703 60 159 3.5 7.8 0.00 0.00 0.00 85 1016.6
20260503022018 60 170 2.6 6.1 0.00 0.00 0.00 85 1016.7
20260503020903 60 149 2.6 7.0 0.00 0.00 0.00 86 1016.7
20260503020217 60 158 3.5 7.8 0.00 0.00 0.00 86 1016.8
20260503015403 60 160 2.6 6.1 0.00 0.00 0.00 86 1016.8
20260503014503 60 172 2.6 6.1 0.00 0.00 0.00 86 1016.9
20260503013603 60 189 4.3 8.7 0.00 0.00 0.00 86 1016.7